When you browse on this site, cookies collect data to enhance your experience and personalize the content and advertising you see.
Visit our Privacy Policy to learn more. By continuing to use the site, you agree to this use of cookies and data.
  • En España
  • Lista de países
  • Para 7 días
  • Temperatura del agua
  • El tiempo en el mapa
  • Informadores
  • user-avatar
    Iniciar sesión

    Tiempo cada hora Parincevo

    Hoy, 24 Enero, Viernes

    Tiempo Temperatura Precipitaciones Viento Presión Humedad
    00:00 -10°C° 0 mm 3 mps 739 mmHg 88%
    01:00 -10°C° 0 mm 3 mps 739 mmHg 89%
    02:00 -10°C° 0 mm 3 mps 739 mmHg 88%
    03:00 -10°C° 0 mm 3 mps 739 mmHg 88%
    04:00 -11°C° 0 mm 4 mps 738 mmHg 88%
    05:00 -10°C° 0 mm 4 mps 738 mmHg 88%
    06:00 -10°C° 0 mm 4 mps 738 mmHg 89%
    07:00 -10°C° 0 mm 5 mps 737 mmHg 90%
    08:00 -10°C° 0 mm 6 mps 737 mmHg 91%
    09:00 -9°C° 0.1 mm 6 mps 737 mmHg 91%
    10:00 -7°C° 0.1 mm 7 mps 736 mmHg 91%
    11:00 -6°C° 0.1 mm 7 mps 736 mmHg 91%
    12:00 -6°C° 0.2 mm 7 mps 735 mmHg 91%
    13:00 -6°C° 0.2 mm 7 mps 734 mmHg 90%
    14:00 -4°C° 0 mm 7 mps 734 mmHg 90%
    15:00 -4°C° 0.1 mm 7 mps 733 mmHg 92%
    16:00 -4°C° 0.1 mm 7 mps 733 mmHg 95%
    17:00 -3°C° 0.1 mm 7 mps 733 mmHg 97%
    18:00 -3°C° 0.2 mm 7 mps 732 mmHg 97%
    19:00 -2°C° 0.2 mm 7 mps 732 mmHg 97%
    20:00 -2°C° 0.2 mm 7 mps 731 mmHg 98%
    21:00 -2°C° 0.5 mm 7 mps 731 mmHg 98%
    22:00 -2°C° 0.5 mm 7 mps 731 mmHg 98%
    23:00 -2°C° 0.5 mm 7 mps 731 mmHg 97%

    Mañana, 25 Enero, Sábado

    Tiempo Temperatura Precipitaciones Viento Presión Humedad
    00:00 -2°C° 0.1 mm 7 mps 731 mmHg 97%
    01:00 -2°C° 0.1 mm 7 mps 731 mmHg 96%
    02:00 -2°C° 0.1 mm 6 mps 731 mmHg 95%
    03:00 -2°C° 0.1 mm 6 mps 730 mmHg 96%
    04:00 -2°C° 0.1 mm 6 mps 730 mmHg 96%
    05:00 -2°C° 0.1 mm 6 mps 730 mmHg 97%
    06:00 -2°C° 0.1 mm 6 mps 730 mmHg 97%
    07:00 -2°C° 0.1 mm 6 mps 730 mmHg 97%
    08:00 -2°C° 0.1 mm 6 mps 731 mmHg 96%
    09:00 -2°C° 0 mm 6 mps 730 mmHg 96%
    10:00 -2°C° 0 mm 6 mps 730 mmHg 95%
    11:00 -2°C° 0 mm 7 mps 730 mmHg 95%
    12:00 -2°C° 0.2 mm 7 mps 730 mmHg 96%
    13:00 -2°C° 0.2 mm 7 mps 729 mmHg 96%
    14:00 -2°C° 0.2 mm 7 mps 729 mmHg 97%
    15:00 -2°C° 0.1 mm 7 mps 729 mmHg 94%
    16:00 -2°C° 0.1 mm 7 mps 729 mmHg 91%
    17:00 -2°C° 0.1 mm 7 mps 729 mmHg 88%
    18:00 -3°C° 0.2 mm 7 mps 729 mmHg 87%
    19:00 -3°C° 0.2 mm 7 mps 730 mmHg 86%
    20:00 -4°C° 0.2 mm 7 mps 730 mmHg 85%
    21:00 -4°C° 0 mm 7 mps 731 mmHg 83%
    22:00 -5°C° 0 mm 6 mps 731 mmHg 81%
    23:00 -5°C° 0 mm 6 mps 732 mmHg 78%

    Pasado mañana, 26 Enero, Domingo

    Tiempo Temperatura Precipitaciones Viento Presión Humedad
    00:00 -5°C° 0 mm 6 mps 732 mmHg 79%
    01:00 -6°C° 0 mm 6 mps 733 mmHg 80%
    02:00 -6°C° 0 mm 6 mps 734 mmHg 82%
    03:00 -6°C° 0 mm 6 mps 734 mmHg 82%
    04:00 -6°C° 0 mm 6 mps 735 mmHg 82%
    05:00 -6°C° 0 mm 6 mps 735 mmHg 83%
    06:00 -7°C° 0 mm 5 mps 736 mmHg 84%
    07:00 -7°C° 0 mm 5 mps 737 mmHg 85%
    08:00 -7°C° 0 mm 5 mps 738 mmHg 85%
    09:00 -6°C° 0 mm 5 mps 739 mmHg 85%
    10:00 -6°C° 0 mm 5 mps 739 mmHg 84%
    11:00 -5°C° 0 mm 5 mps 740 mmHg 84%
    12:00 -5°C° 0 mm 5 mps 740 mmHg 84%
    13:00 -4°C° 0 mm 4 mps 740 mmHg 84%
    14:00 -4°C° 0 mm 4 mps 740 mmHg 84%
    15:00 -4°C° 0 mm 4 mps 740 mmHg 84%
    16:00 -5°C° 0 mm 5 mps 740 mmHg 84%
    17:00 -6°C° 0 mm 5 mps 739 mmHg 85%
    18:00 -5°C° 0 mm 5 mps 739 mmHg 84%
    19:00 -5°C° 0 mm 6 mps 739 mmHg 83%
    20:00 -6°C° 0 mm 7 mps 739 mmHg 82%
    21:00 -4°C° 0 mm 7 mps 739 mmHg 85%
    22:00 -4°C° 0 mm 7 mps 739 mmHg 88%
    23:00 -4°C° 0 mm 7 mps 738 mmHg 91%

    27 Enero, Lunes

    Tiempo Temperatura Precipitaciones Viento Presión Humedad
    00:00 -4°C° 0 mm 7 mps 738 mmHg 90%
    01:00 -3°C° 0 mm 7 mps 738 mmHg 90%
    02:00 -3°C° 0 mm 7 mps 738 mmHg 89%
    03:00 -3°C° 0 mm 6 mps 738 mmHg 90%
    04:00 -3°C° 0 mm 6 mps 738 mmHg 91%
    05:00 -3°C° 0 mm 6 mps 738 mmHg 92%
    06:00 -3°C° 0 mm 6 mps 738 mmHg 92%
    07:00 -2°C° 0 mm 5 mps 738 mmHg 92%
    08:00 -2°C° 0 mm 5 mps 738 mmHg 92%
    09:00 -2°C° 0 mm 5 mps 739 mmHg 94%
    10:00 -2°C° 0 mm 5 mps 739 mmHg 95%
    11:00 -2°C° 0 mm 4 mps 739 mmHg 97%
    12:00 -2°C° 0.1 mm 4 mps 739 mmHg 97%
    13:00 -2°C° 0.1 mm 4 mps 739 mmHg 97%
    14:00 -1°C° 0.1 mm 3 mps 739 mmHg 98%
    15:00 -1°C° 0.1 mm 3 mps 739 mmHg 98%
    16:00 -1°C° 0.1 mm 3 mps 739 mmHg 98%
    17:00 -1°C° 0.1 mm 3 mps 739 mmHg 98%
    18:00 -1°C° 0.1 mm 3 mps 739 mmHg 98%
    19:00 -1°C° 0.1 mm 3 mps 739 mmHg 98%
    20:00 -1°C° 0.1 mm 2 mps 739 mmHg 98%
    21:00 0°C° 0 mm 3 mps 739 mmHg 98%
    22:00 0°C° 0 mm 3 mps 739 mmHg 98%
    23:00 0°C° 0 mm 3 mps 739 mmHg 98%

    28 Enero, Martes

    Tiempo Temperatura Precipitaciones Viento Presión Humedad
    00:00 -1°C° 0.1 mm 3 mps 739 mmHg 98%
    01:00 -1°C° 0.1 mm 3 mps 738 mmHg 97%
    02:00 -1°C° 0.1 mm 3 mps 738 mmHg 97%
    03:00 -1°C° 0.2 mm 3 mps 738 mmHg 97%
    04:00 -2°C° 0.2 mm 4 mps 738 mmHg 97%
    05:00 -3°C° 0.2 mm 4 mps 737 mmHg 97%
    06:00 -2°C° 0.1 mm 4 mps 737 mmHg 97%
    07:00 -2°C° 0.1 mm 4 mps 737 mmHg 97%
    08:00 -2°C° 0.1 mm 4 mps 737 mmHg 98%
    09:00 -2°C° 0.1 mm 4 mps 737 mmHg 98%
    10:00 -1°C° 0.1 mm 4 mps 737 mmHg 99%
    11:00 0°C° 0.1 mm 3 mps 737 mmHg 99%
    12:00 0°C° 0 mm 3 mps 736 mmHg 99%
    13:00 0°C° 0 mm 3 mps 736 mmHg 99%
    14:00 0°C° 0 mm 3 mps 736 mmHg 99%
    15:00 0°C° 0.1 mm 3 mps 736 mmHg 99%
    16:00 0°C° 0.1 mm 3 mps 736 mmHg 98%
    17:00 0°C° 0.1 mm 3 mps 736 mmHg 98%
    18:00 0°C° 0.1 mm 3 mps 736 mmHg 98%
    19:00 0°C° 0.1 mm 3 mps 736 mmHg 98%
    20:00 0°C° 0.1 mm 3 mps 736 mmHg 98%
    21:00 0°C° 0 mm 3 mps 736 mmHg 98%
    22:00 0°C° 0 mm 3 mps 736 mmHg 98%
    23:00 -1°C° 0 mm 3 mps 736 mmHg 98%

    29 Enero, Miércoles

    Tiempo Temperatura Precipitaciones Viento Presión Humedad
    00:00 -1°C° 0 mm 3 mps 736 mmHg 98%
    01:00 -1°C° 0 mm 3 mps 736 mmHg 97%
    02:00 -1°C° 0 mm 3 mps 736 mmHg 97%
    03:00 -1°C° 0 mm 3 mps 735 mmHg 97%
    04:00 -1°C° 0 mm 3 mps 735 mmHg 97%
    05:00 -1°C° 0 mm 3 mps 735 mmHg 97%
    06:00 -1°C° 0 mm 3 mps 735 mmHg 97%
    07:00 -1°C° 0 mm 3 mps 735 mmHg 97%
    08:00 -2°C° 0 mm 4 mps 734 mmHg 97%
    09:00 -1°C° 0 mm 4 mps 734 mmHg 97%
    10:00 -1°C° 0 mm 4 mps 734 mmHg 98%
    11:00 -1°C° 0 mm 5 mps 734 mmHg 98%
    12:00 -1°C° 0 mm 5 mps 733 mmHg 98%
    13:00 -1°C° 0 mm 5 mps 732 mmHg 98%
    14:00 -1°C° 0 mm 5 mps 732 mmHg 99%
    15:00 -2°C° 0 mm 6 mps 731 mmHg 98%
    16:00 -2°C° 0 mm 6 mps 731 mmHg 97%
    17:00 -2°C° 0 mm 6 mps 731 mmHg 95%
    18:00 -2°C° 0.2 mm 6 mps 730 mmHg 96%
    19:00 -1°C° 0.2 mm 6 mps 730 mmHg 96%
    20:00 -1°C° 0.2 mm 6 mps 729 mmHg 97%
    21:00 -1°C° 0.6 mm 6 mps 729 mmHg 97%
    22:00 -1°C° 0.6 mm 6 mps 728 mmHg 97%
    23:00 0°C° 0.6 mm 5 mps 728 mmHg 97%
    Mostrar más